Flag for Canada Weather past 2 weeks in Sherbrooke, Quebec, Canada

Now
79 °F

Overcast.


Feels Like: 81 °F
Forecast: 55 / 81 °F
Wind: 7 mph from Southwest

Location: Sherbrooke

Current Time: Sep 2, 2015 at 4:04:34 PM

Latest Report: Sep 2, 2015 at 3:00 PM


Visibility: 9 mi

Pressure: 29.93 "Hg

Humidity: 65%

Dew point: 66 °F

Location of SherbrookeLocation

Historic Weather in Sherbrooke — Graph

°F

Sherbrooke temperature yesterday

Maximum temperature yesterday: 75 °F (at 3:00 PM)
Minimum temperature yesterday: 48 °F (at 5:00 AM)
Average temperature yesterday: 61 °F

Past Weeks' High & Low Weather Summary

 TemperatureHumidityPressure
High88 °F (Aug 19, 3:00 PM)100% (Aug 19, 6:00 AM)30.21 "Hg (Aug 19, 6:00 AM)
Low48 °F (Aug 29, 5:02 AM)42% (Aug 23, 12:00 PM)29.82 "Hg (Aug 24, 5:00 PM)
Average66 °F82%30.01 "Hg
* Reported Aug 18 3:00 PM — Sep 2 3:00 PM, Sherbrooke, Weather by CustomWeather, © 2015

Note: Actual official high and low records may vary slightly from our data, if they occured in-between our weather recording intervals... More about our weather records

Advertising

Sherbrooke weather history for previous 24 hours

 ConditionsComfort  
Time TempWeatherWind HumidityBarometerVisibility
3:00 PM
Wed, Sep 2
79 °FOvercast.7 mph65%29.93 "Hg9 mi
2:00 PM79 °FPartly sunny.8 mph65%29.96 "Hg9 mi
1:00 PM77 °FPartly sunny.9 mph69%29.97 "Hg9 mi
12:56 PM75 °FPartly sunny.7 mph74%29.97 "Hg9 mi
12:00 PM75 °FPartly sunny.9 mph78%29.97 "Hg9 mi
11:00 AM73 °FPartly sunny.10 mph78%29.98 "Hg9 mi
10:00 AM72 °FSunny.5 mph78%29.98 "Hg9 mi
9:00 AM66 °FOvercast.No wind88%29.99 "Hg9 mi
8:00 AM61 °FOvercast.No wind94%30.01 "Hg9 mi
7:00 AM57 °FPassing clouds.2 mph94%30.00 "Hg9 mi
6:00 AM57 °FOvercast.No wind94%30.00 "Hg9 mi
5:00 AM55 °FPassing clouds.No wind94%30.00 "Hg9 mi
4:00 AM55 °FPartly cloudy.No wind94%30.01 "Hg9 mi
3:00 AM54 °FClear.2 mph100%30.01 "Hg8 mi
2:56 AM54 °FFog.2 mph100%30.01 "Hg3 mi
2:00 AM55 °FClear.2 mph100%30.02 "Hg9 mi
1:00 AM55 °FClear.No wind94%30.02 "Hg9 mi
12:00 AM57 °FClear.3 mph94%30.02 "Hg9 mi
11:00 PM
Tue, Sep 1
59 °FClear.No wind94%30.02 "Hg9 mi
10:00 PM59 °FClear.3 mph94%30.03 "Hg9 mi
9:00 PM61 °FClear.No wind94%30.03 "Hg9 mi
8:00 PM63 °FSunny.2 mph88%30.03 "Hg9 mi
7:00 PM72 °FSunny.5 mph69%30.02 "Hg9 mi
6:00 PM75 °FSunny.5 mph57%30.01 "Hg9 mi
5:00 PM75 °FSunny.3 mph54%30.03 "Hg9 mi
4:00 PM75 °FSunny.8 mph50%30.03 "Hg9 mi
Weather by CustomWeather, © 2015

See weather overviewHow to use our weather pages